Regional Weather Roundup
Issued by NWS Goodland, KS

Home | Current Version | Previous Version | Graphics & Text | Print | Product List | Glossary On
Versions: 1 2 3 4 5 6 7 8 9 10 11 12 13 14 15 16 17 18 19 20 21 22 23 24 25 26 27 28 29 30 31 32 33 34 35 36 37 38 39 40 41 42 43 44 45 46 47 48 49 50
743
ASUS43 KGLD 231959
RWRGLD

GOODLAND FORECAST AREA HOURLY WEATHER ROUNDUP
NATIONAL WEATHER SERVICE GOODLAND KS
200 PM MDT THU MAR 23 2017

...OFFICIAL OBSERVATIONS...

CITY           SKY/WX    TMP DP  RH WIND       PRES   REMARKS
GOODLAND KS    MOSUNNY   81  40  23 S18G25    29.58F
HILL CITY KS   SUNNY     80  57  45 S25G33    29.61F
IMPERIAL NEB   SUNNY     75  48  38 SE10      29.56F
MCCOOK NEB     SUNNY     83  51  33 S14G23    29.55F
AKRON CO       SUNNY     78  19  11 MISG      29.57F
BURLINGTON CO  SUNNY     81  33  17 S22G35    29.61F
LIMON CO       SUNNY     74  14  10 S16G29    29.63F
$$

...UNOFFICIAL OBSERVATIONS...

CITY           SKY/WX    TMP DP  RH WIND       PRES   REMARKS
LENORA KS        N/A     80  32  17 SE16        N/A
NORTON KS      SUNNY     79  50  36 S22G30    29.58F
SHARON SPRINGS   N/A     82  39  21 S15G28      N/A
TRENTON NEB      N/A     79  32  18 S8          N/A
YUMA CO        FAIR      81  14   8 SW21      29.56F
$$




USA.gov is the U.S. government's official web portal to all federal, state and local government web resources and services.